Startseite
Über Mich
AHP4
Galerie
Sehschlangen
Tourenbuch
Bookmarks
Elektronik
Bewertung
Geschichten
[Tagesmessung] [Jahreswerte] [Information]

Messwerte vom 04.05.2022

Die letzten Messwerte von 23:58:47 Uhr:
KategorieMesswert
Temperatur [°C]9
Luftdruck [mBar]1002
Sonneneinstrahlung0
Wind [km/h]0 aus Südost
Niederschlag [l/m²]0
rel.Luftfeucht.84.8%
CO2 [ppm]727

Diagramme
Messwerte vom 04.05.2022
Tagesaggregation
KategorieMinimumMaximumSchnittSumme
Temperatur [°C]32211.7104
Luftdruck [mBar]100010041001.9875
Sonneneinstrahlung245129.2333
Wind [km/h]13
rF [%]4094.171.13
Niederschlag [l/m²]0
CO2 [ppm]401764517.8
Einordnung alsVegetationstag

Messungen an benachbarten Tagen: Zur Jahresaggregation 2022
Tabelle aller Messwerte
UhrzeitTemperatur [°C]Luftdruck [mBar]SonneWind [km/h]RichtungRegen [l/m²]rF [%]CO2 [ppm]
00:01:46 7 1002 0 0 S 0 85.4 548
00:04:45 7 1002 0 0 S 0 85.1 545
00:07:47 6 1002 0 0 S 0 84.6 545
00:10:47 6 1003 0 0 S 0 84.2 539
00:13:48 6 1002 0 0 S 0 84.2 542
00:16:49 6 1002 0 0 S 0 84.2 545
00:19:47 6 1002 0 0 S 0 84.1 553
00:22:46 6 1002 0 0 S 0 84.3 553
00:25:45 6 1002 0 0 S 0 85.1 556
00:28:48 6 1002 0 0 S 0 85.6 559
00:31:45 6 1002 0 0 S 0 85.8 554
00:34:48 6 1003 0 0 S 0 86.2 554
00:37:47 6 1003 0 0 S 0 86.4 556
00:40:49 6 1002 0 0 S 0 86.5 553
00:43:44 6 1002 0 0 S 0 86.5 553
00:46:46 6 1002 0 0 S 0 86.4 553
00:49:47 5 1003 0 0 S 0 86.3 553
00:52:48 5 1002 0 0 S 0 86.3 563
00:55:47 5 1003 0 0 S 0 86.4 565
00:58:46 5 1002 0 0 S 0 86.9 562
01:01:47 6 1002 0 0 S 0 88 561
01:04:46 6 1002 0 0 S 0 88.2 557
01:07:48 6 1002 0 0 S 0 88.2 562
01:10:47 6 1002 0 0 S 0 88.2 561
01:13:47 6 1002 0 0 S 0 87.9 560
01:16:49 6 1002 0 0 S 0 87.9 559
01:19:48 6 1002 0 0 S 0 87.8 562
01:22:45 6 1002 0 0 S 0 87.6 564
01:25:48 7 1002 0 0 S 0 87.2 560
01:28:47 7 1002 0 0 S 0 86.9 551
01:31:47 7 1002 0 0 S 0 86.9 555
01:34:47 7 1003 0 0 S 0 86.8 563
01:37:46 7 1003 0 0 S 0 86.6 562
01:40:47 7 1002 0 0 S 0 86.5 569
01:43:45 7 1002 0 0 S 0 86.4 565
01:46:47 7 1003 0 0 S 0 86.3 565
01:49:48 7 1002 0 0 S 0 86.5 580
01:52:47 7 1002 0 0 S 0 86.4 578
01:55:47 7 1002 0 0 S 0 86.3 575
01:58:45 7 1002 0 0 S 0 86.4 571
02:01:47 7 1003 0 0 S 0 86.4 565
02:04:45 7 1003 0 0 S 0 85.3 573
02:07:47 7 1002 0 0 S 0 85.7 574
02:10:46 7 1003 0 0 S 0 85.7 577
02:13:48 7 1003 0 0 S 0 86.2 579
02:16:45 7 1002 0 0 N 0 86.4 571
02:19:48 7 1002 0 0 N 0 86.7 568
02:22:46 7 1002 0 0 N 0 86.7 576
02:25:48 7 1003 0 0 N 0 86.9 580
02:28:47 7 1003 0 0 N 0 86.8 594
02:31:47 7 1002 0 0 N 0 86.8 585
02:34:47 7 1003 0 0 N 0 87.2 590
02:37:48 7 1002 0 0 N 0 87.1 579
02:40:47 7 1002 0 0 N 0 87.6 577
02:43:47 7 1002 0 0 N 0 87.8 571
02:46:46 7 1002 0 0 N 0 87.7 585
02:49:47 7 1002 0 0 N 0 87.7 589
02:52:48 7 1002 0 0 N 0 87.6 591
02:55:48 7 1003 0 0 N 0 86.9 589
02:58:46 7 1002 0 0 N 0 86.8 588
03:01:46 7 1003 0 0 N 0 87.4 597
03:04:47 7 1002 0 0 N 0 87.4 597
03:07:46 7 1003 0 0 N 0 87 597
03:10:47 6 1002 0 0 N 0 86.6 594
03:13:45 6 1002 0 0 N 0 86.6 591
03:16:47 6 1002 0 0 N 0 86.7 588
03:19:47 6 1002 0 0 N 0 86.9 585
03:22:47 6 1002 0 0 N 0 87.4 592
03:25:48 6 1003 0 0 W 0 87.9 589
03:28:49 5 1002 0 0 W 0 88.1 588
03:31:47 5 1003 0 0 W 0 88.4 588
03:34:47 5 1002 0 0 NW 0 88.9 597
03:37:50 5 1002 0 0 SO 0 88.9 597
03:40:46 5 1002 0 0 SO 0 88.9 591
03:43:47 5 1003 0 0 SO 0 88.9 594
03:46:48 5 1002 0 0 SO 0 88.9 592
03:49:47 5 1002 0 0 SO 0 88.9 598
03:52:48 5 1003 0 0 SO 0 89.2 600
03:55:50 5 1002 0 0 SO 0 89.3 597
03:58:49 5 1002 0 0 SO 0 89.3 601
04:01:49 5 1002 0 0 SO 0 89.3 598
04:04:47 4 1002 0 0 SO 0 89.5 600
04:07:46 4 1002 0 0 SO 0 89.6 594
04:10:51 4 1003 0 0 SO 0 89.6 585
04:13:48 4 1002 0 0 SO 0 89.6 594
04:16:46 4 1002 0 0 SO 0 89.7 591
04:19:49 4 1002 0 0 SO 0 89.8 591
04:22:46 4 1002 0 0 SO 0 89.9 593
04:25:46 4 1003 0 0 SO 0 90 589
04:28:47 4 1002 0 0 SO 0 90.2 586
04:31:47 4 1002 0 0 SO 0 90.1 582
04:34:49 4 1002 0 0 SO 0 90.2 585
04:37:49 4 1003 0 0 N 0 91.3 591
04:40:46 4 1003 0 0 N 0 91.2 588
04:43:47 4 1003 0 0 NO 0 91.3 592
04:46:46 4 1002 0 0 N 0 92.5 589
04:49:45 4 1002 0 0 N 0 92.4 592
04:52:47 4 1002 0 0 N 0 91.8 588
04:55:46 3 1002 0 0 N 0 91.6 585
04:58:46 3 1003 0 0 S 0 91.6 597
05:01:47 3 1003 0 0 S 0 91.6 597
05:04:46 3 1003 0 0 S 0 91.7 603
05:07:48 3 1003 0 0 S 0 91.7 595
05:10:47 3 1003 0 0 S 0 91.6 591
05:13:47 3 1002 3 0 S 0 91.5 594
05:16:47 3 1002 5 0 S 0 91.5 591
05:19:46 3 1002 7 0 S 0 91.6 598
05:22:46 3 1003 11 0 S 0 91.7 603
05:25:48 3 1003 17 0 S 0 91.8 594
05:28:49 3 1002 23 0 S 0 92.1 594
05:31:47 3 1002 32 0 S 0 92.1 591
05:34:47 3 1002 42 0 S 0 92 600
05:37:48 3 1002 53 0 S 0 92.3 597
05:40:47 3 1002 62 0 S 0 92.5 594
05:43:48 3 1002 71 0 S 0 92.9 585
05:46:47 3 1002 81 0 S 0 93.1 588
05:49:47 3 1002 91 0 S 0 93 594
05:52:47 3 1002 101 0 S 0 93 599
05:55:47 3 1002 110 0 S 0 93.3 603
05:58:45 3 1002 116 0 S 0 93.3 595
06:01:49 3 1002 122 0 S 0 93.2 597
06:04:48 3 1002 129 0 S 0 93.1 591
06:07:47 3 1002 135 0 S 0 92.9 586
06:10:49 3 1002 139 0 NW 0 93.5 582
06:13:50 3 1002 143 0 NW 0 93.8 582
06:16:49 3 1002 148 0 NW 0 93.8 585
06:19:49 4 1003 152 0 NW 0 93.8 594
06:22:47 4 1002 157 0 NW 0 93.9 597
06:25:50 4 1003 160 0 NW 0 93.9 588
06:28:48 4 1003 163 0 NW 0 94.1 585
06:31:47 4 1003 165 0 NW 0 94.1 585
06:34:50 4 1002 166 0 NW 0 94 586
06:37:49 4 1002 168 0 NW 0 93.8 596
06:40:49 4 1002 171 0 NW 0 93.5 585
06:43:49 4 1002 174 0 NW 0 93.4 588
06:46:49 4 1002 176 0 NW 0 93.5 585
06:49:48 5 1003 178 0 NW 0 93.6 591
06:52:49 6 1002 179 0 NW 0 93 597
06:55:48 6 1003 181 0 NW 0 91.7 513
06:58:48 7 1003 182 0 NW 0 90.8 407
07:01:47 8 1003 184 0 NW 0 89.9 406
07:04:47 8 1003 185 0 NW 0 88.7 407
07:07:49 9 1003 185 0 NW 0 85.4 404
07:10:48 9 1002 185 0 NW 0 85.2 440
07:13:50 9 1002 185 0 NW 0 83.7 460
07:16:47 9 1003 186 0 O 0 82.6 469
07:19:50 8 1003 187 0 NW 0 83.9 465
07:22:50 8 1002 187 0 NW 0 84.8 459
07:25:49 9 1003 188 0 N 0 84.6 495
07:28:48 9 1003 188 0 O 0 82.2 491
07:31:46 9 1003 190 0 N 0 80.9 488
07:34:49 10 1002 191 0 N 0 81.6 489
07:37:45 10 1003 194 0 N 0 81.6 503
07:40:48 10 1003 195 0 O 0 78.8 512
07:43:49 9 1003 196 3 N 0 76.5 518
07:46:48 9 1003 199 1 N 0 77.4 522
07:49:48 8 1003 197 0 NO 0 78.5 507
07:52:47 8 1003 195 0 O 0 80.2 518
07:55:47 8 1002 196 3 0 80.7 512
07:58:51 8 1002 195 3 0 80.7 526
08:01:49 8 1003 195 2 NO 0 80.2 515
08:04:49 8 1003 196 1 NO 0 80.3 518
08:07:48 8 1002 197 3 NO 0 80.4 509
08:10:51 8 1002 197 2 NW 0 80 507
08:13:48 8 1003 197 3 NO 0 80.6 506
08:16:52 8 1003 198 2 NW 0 79.9 500
08:19:48 8 1003 200 2 NO 0 79.8 500
08:22:49 9 1003 199 0 NO 0 79.6 494
08:25:49 9 1003 200 1 NO 0 78.8 496
08:28:48 9 1003 201 1 NO 0 77.7 492
08:31:48 9 1003 201 0 NO 0 77 489
08:34:50 9 1003 205 2 NW 0 76.9 479
08:37:48 9 1003 206 3 NW 0 76.9 483
08:40:47 9 1003 206 8 O 0 76.8 486
08:43:48 9 1003 207 1 O 0 76.3 486
08:46:47 9 1003 210 1 NO 0 75.9 483
08:49:54 10 1003 211 0 O 0 76 480
08:52:47 10 1003 212 5 N 0 75.1 468
08:55:48 10 1003 214 3 NO 0 73.8 468
08:58:50 10 1002 214 4 NW 0 73.4 468
09:01:47 10 1003 215 1 NW 0 72.6 474
09:04:49 10 1003 215 1 NO 0 72 474
09:07:49 10 1003 217 2 SO 0 71 466
09:10:48 11 1003 215 3 NO 0 70.8 463
09:13:50 11 1002 212 4 N 0 69.3 457
09:16:46 11 1002 210 1 N 0 68.6 454
09:19:48 11 1003 208 4 NO 0 69.5 457
09:22:48 11 1003 206 2 N 0 70 457
09:25:48 11 1003 205 2 NO 0 68.9 451
09:28:46 11 1004 205 3 NO 0 68.7 444
09:31:51 11 1003 205 1 NO 0 68.1 448
09:34:48 11 1003 205 0 N 0 68.7 457
09:37:47 11 1003 205 2 O 0 68.3 448
09:40:50 11 1002 205 1 NO 0 68.6 447
09:43:48 11 1003 205 2 NW 0 68.4 439
09:46:48 10 1002 206 2 N 0 69.2 447
09:49:48 10 1003 206 4 N 0 69.8 442
09:52:46 11 1002 207 2 W 0 70.6 427
09:55:46 11 1003 207 3 N 0 70.5 424
09:58:48 11 1003 207 5 NO 0 70.2 419
10:01:48 11 1003 207 2 O 0 69.6 422
10:04:49 11 1003 207 3 NW 0 69.6 424
10:07:48 11 1003 207 4 NO 0 69.7 424
10:10:49 11 1002 207 2 N 0 69.1 424
10:13:50 11 1003 208 6 N 0 69.2 427
10:16:49 11 1003 208 1 NW 0 68.8 421
10:19:49 11 1002 208 0 N 0 69.2 422
10:22:49 11 1002 208 1 NO 0 68.9 421
10:25:47 11 1003 208 3 O 0 68.4 427
10:28:50 12 1002 209 6 SO 0 67.9 418
10:31:48 12 1003 209 5 S 0 68.2 418
10:34:49 12 1003 209 4 SO 0 68.2 407
10:37:48 12 1003 209 3 O 0 68.2 404
10:40:48 12 1002 210 2 SW 0 67.8 404
10:43:49 13 1002 210 3 W 0 67.2 407
10:46:50 12 1003 210 4 NO 0 65.9 404
10:49:47 12 1003 210 2 0 65.5 407
10:52:49 13 1003 210 0 SW 0 66.1 406
10:55:48 13 1002 210 9 SW 0 66.5 406
10:58:49 13 1002 211 0 SW 0 64.4 406
11:01:50 13 1003 211 0 NW 0 64 407
11:04:46 13 1003 211 9 S 0 64.9 404
11:07:47 13 1003 212 4 S 0 65.9 403
11:10:46 14 1002 212 1 S 0 64.8 404
11:13:47 14 1003 212 3 S 0 63.9 407
11:16:49 14 1003 212 0 SO 0 62 404
11:19:48 14 1002 212 0 SO 0 60.9 404
11:22:47 14 1002 213 5 N 0 62 405
11:25:48 13 1002 213 0 O 0 62.7 407
11:28:47 13 1003 213 1 S 0 63.3 404
11:31:45 13 1003 213 3 S 0 62.3 403
11:34:48 14 1003 214 1 SW 0 62.9 407
11:37:47 14 1002 214 2 S 0 63.6 407
11:40:50 14 1002 214 2 SW 0 62.8 404
11:43:46 15 1002 214 2 S 0 62.1 403
11:46:48 15 1002 215 1 W 0 60.2 404
11:49:50 15 1002 215 6 N 0 58.8 404
11:52:46 15 1002 215 1 SW 0 58.7 407
11:55:49 15 1002 216 0 NW 0 59.7 404
11:58:49 15 1002 216 7 NW 0 58.5 407
12:01:48 15 1002 216 4 NW 0 58.3 403
12:04:50 15 1003 217 2 NW 0 59.5 407
12:07:47 16 1002 217 8 NO 0 59.8 401
12:10:48 16 1002 218 5 NO 0 58.1 404
12:13:49 16 1002 218 0 W 0 58.7 407
12:16:49 17 1002 219 1 S 0 58.6 407
12:19:49 18 1002 220 4 W 0 55.5 404
12:22:31 16 1002 220 3 O 0 48.5 407
12:25:49 18 1002 222 6 SO 0 52.6 407
12:28:49 18 1002 223 2 N 0 53.2 407
12:31:47 18 1002 223 3 O 0 52 406
12:34:48 18 1002 223 6 O 0 51 407
12:37:49 17 1002 225 4 NO 0 53.8 404
12:40:50 18 1002 227 0 NW 0 55.8 401
12:43:49 18 1002 229 13 SO 0 55.4 403
12:46:47 19 1002 230 2 NW 0 50.1 407
12:49:48 19 1002 230 6 NW 0 49.7 401
12:52:48 18 1002 230 3 O 0 50.1 407
12:55:48 18 1002 229 5 SO 0 52.4 404
12:58:47 18 1002 229 1 0 53.2 406
13:01:49 17 1002 230 3 SO 0 53.6 407
13:04:31 17 1002 231 2 S 0 40 404
13:07:50 18 1002 232 6 NW 0 51.6 404
13:10:49 18 1002 233 6 W 0 52.4 405
13:13:46 18 1002 233 2 N 0 53.4 404
13:16:48 18 1002 232 0 NW 0 53.5 404
13:19:48 18 1002 233 2 NO 0 52.7 407
13:22:48 18 1002 233 4 SW 0 52.9 404
13:25:46 18 1002 235 4 N 0 52.7 404
13:28:48 19 1002 235 4 S 0 52.9 404
13:31:50 21 1002 233 3 SO 0 51.7 407
13:34:48 21 1002 234 3 NW 0 47.1 404
13:37:47 19 1002 235 3 O 0 46.2 404
13:40:47 18 1002 234 4 N 0 49.7 407
13:43:48 18 1002 235 6 N 0 50.4 404
13:46:51 18 1002 235 6 NW 0 51.2 407
13:49:48 18 1002 233 8 SO 0 52.1 404
13:52:47 19 1002 235 4 S 0 52.4 407
13:55:48 19 1002 236 7 S 0 51.6 404
13:58:48 20 1002 236 6 S 0 51.4 405
14:01:48 21 1002 235 2 SW 0 49.1 404
14:04:49 22 1002 237 3 N 0 47.8 408
14:07:50 22 1002 238 6 W 0 46.2 407
14:10:48 22 1002 238 3 SW 0 45.2 407
14:13:49 22 1002 238 3 NW 0 44.9 404
14:16:49 22 1002 238 3 NW 0 43.7 407
14:19:48 22 1002 239 3 SO 0 44.5 404
14:22:47 22 1002 241 0 S 0 44.6 404
14:25:51 22 1002 240 4 SO 0 43.8 407
14:28:48 22 1002 241 2 SO 0 44.2 404
14:31:50 22 1002 240 2 NW 0 42.7 404
14:34:50 21 1002 241 7 NW 0 44.1 407
14:37:49 21 1002 242 7 SO 0 45.2 407
14:40:48 22 1002 241 6 NO 0 44.9 407
14:43:49 22 1002 239 1 SO 0 42.8 404
14:46:48 20 1002 239 5 N 0 45.6 404
14:49:48 20 1002 241 3 NO 0 45.8 407
14:52:49 19 1002 243 4 N 0 46.3 405
14:55:47 20 1001 237 0 NW 0 47.2 404
14:58:50 20 1002 235 4 SO 0 47.8 407
15:01:48 21 1002 234 0 NO 0 47.8 413
15:04:47 21 1002 237 1 NW 0 45.1 410
15:07:48 22 1002 237 1 NW 0 45 413
15:10:46 22 1001 241 4 W 0 44.6 410
15:13:51 22 1002 239 0 NO 0 44.4 413
15:16:47 22 1001 235 2 O 0 43.8 406
15:19:49 21 1002 228 4 NW 0 43.8 413
15:22:49 20 1001 227 5 NO 0 45.8 416
15:25:47 20 1001 224 3 W 0 46.2 418
15:28:47 20 1002 225 9 NO 0 47.7 419
15:31:51 19 1002 224 2 NW 0 47.9 428
15:34:46 19 1001 221 5 N 0 48.6 427
15:37:48 19 1002 218 1 N 0 49.2 421
15:40:48 19 1001 223 0 N 0 50 421
15:43:47 19 1001 229 1 N 0 50.4 415
15:46:48 19 1001 227 1 S 0 51.1 413
15:49:49 19 1001 224 1 O 0 51 422
15:52:48 20 1001 223 0 NW 0 52 428
15:55:51 19 1001 224 3 NW 0 50.9 416
15:58:48 19 1002 225 2 N 0 50.6 410
16:01:46 19 1001 220 0 O 0 50.5 413
16:04:49 19 1001 217 3 NW 0 52.4 418
16:07:49 19 1002 225 7 NW 0 53.2 427
16:10:48 18 1001 236 2 N 0 52.9 425
16:13:47 19 1001 235 8 NW 0 51.7 418
16:16:47 19 1002 237 3 N 0 51.5 407
16:19:49 19 1001 229 1 SW 0 52.3 410
16:22:50 19 1002 219 0 NW 0 52.5 410
16:25:47 19 1001 218 4 W 0 50.2 415
16:28:51 18 1001 223 2 NW 0 52 416
16:31:50 18 1001 227 0 NW 0 51.8 421
16:34:48 18 1001 221 2 NW 0 51.9 419
16:37:47 18 1001 220 7 W 0 53.2 415
16:40:50 18 1001 227 3 NW 0 53.1 419
16:43:48 18 1001 245 2 NW 0 53.8 416
16:46:47 20 1001 240 3 S 0 54.4 422
16:49:52 20 1000 240 5 N 0 48.4 415
16:52:49 20 1002 238 7 N 0 47.6 416
16:55:48 20 1001 225 0 O 0 47.8 413
16:58:48 19 1001 214 2 NW 0 49.6 410
17:01:50 19 1001 213 6 NW 0 49.5 406
17:04:48 18 1000 211 3 N 0 50.2 410
17:07:48 18 1001 207 1 SW 0 50.2 412
17:10:49 18 1002 202 1 SO 0 51.5 408
17:13:46 18 1002 200 0 NO 0 53.1 411
17:16:51 18 1001 200 0 NW 0 52.9 409
17:19:48 18 1001 202 0 NW 0 53.4 416
17:22:47 18 1000 141 2 W 0 54.9 415
17:25:50 18 1001 146 0 NW 0 56 404
17:28:48 18 1001 147 1 O 0 55.8 406
17:31:49 18 1002 143 1 NW 0 55.8 405
17:34:49 18 1001 201 0 NW 0 56.1 405
17:37:50 18 1001 203 0 S 0 56 404
17:40:51 18 1001 203 0 NW 0 55.6 407
17:43:50 18 1001 200 0 NW 0 55.6 407
17:46:47 18 1001 198 1 NW 0 55.8 406
17:49:50 18 1000 198 0 W 0 55.1 404
17:52:46 18 1001 203 0 NO 0 55 406
17:55:49 18 1002 201 0 SW 0 55 407
17:58:48 18 1001 194 0 SW 0 55.6 410
18:01:47 18 1001 192 0 SW 0 56 415
18:04:48 18 1001 189 0 SO 0 56.4 424
18:07:47 18 1001 184 0 O 0 56.4 430
18:10:49 18 1001 182 0 NW 0 56.7 431
18:13:46 17 1001 185 0 S 0 56.6 436
18:16:48 17 1002 180 1 SW 0 56.6 445
18:19:49 17 1001 175 0 SW 0 56.5 451
18:22:46 17 1001 174 3 SW 0 57.2 454
18:25:49 17 1000 178 0 SW 0 58.1 462
18:28:49 17 1001 186 0 SW 0 58.8 462
18:31:50 17 1001 190 0 SW 0 59.4 475
18:34:51 17 1001 196 0 SW 0 59.7 468
18:37:48 17 1001 202 0 SW 0 59.8 468
18:40:49 17 1002 205 0 SW 0 59.7 475
18:43:50 17 1002 209 0 SW 0 59.9 474
18:46:47 17 1001 218 0 SW 0 60.3 480
18:49:49 17 1000 222 1 NW 0 60.1 483
18:52:47 17 1001 224 0 NW 0 59.1 489
18:55:46 18 1001 223 4 N 0 58.4 492
18:58:48 18 1002 223 2 N 0 56.4 498
19:01:46 18 1001 223 3 N 0 55.8 503
19:04:47 18 1001 223 2 W 0 55.9 510
19:07:46 17 1001 218 2 N 0 54.9 521
19:10:49 17 1001 215 2 W 0 54.5 524
19:13:47 17 1001 217 0 SO 0 54.4 529
19:16:47 17 1001 218 0 SO 0 55.5 521
19:19:49 17 1001 221 3 NW 0 56.4 525
19:22:48 17 1000 224 5 NW 0 54.8 530
19:25:50 17 1002 225 2 NO 0 55.3 538
19:28:50 17 1001 225 1 N 0 56.3 548
19:31:49 17 1001 217 0 SO 0 56.9 559
19:34:48 16 1000 214 0 SW 0 57.4 568
19:37:48 16 1001 213 0 S 0 57.2 560
19:40:48 16 1002 170 0 S 0 57.3 557
19:43:50 16 1001 167 2 NW 0 58 509
19:46:47 16 1001 166 0 W 0 58.1 442
19:49:46 16 1001 163 1 W 0 58.2 419
19:52:47 16 1000 157 1 W 0 58.3 413
19:55:48 16 1001 199 0 W 0 58.9 413
19:58:48 16 1001 195 0 W 0 59.1 439
20:01:49 16 1001 191 0 W 0 59.1 492
20:04:48 16 1001 190 0 W 0 59.2 521
20:07:50 15 1000 187 0 W 0 59.6 536
20:10:47 15 1001 184 0 W 0 59.9 536
20:13:48 15 1001 180 0 SO 0 60.4 547
20:16:50 15 1001 174 0 SO 0 61.4 548
20:19:47 14 1001 167 0 SO 0 61.8 556
20:22:50 14 1002 159 0 SO 0 62.2 550
20:25:49 14 1001 151 0 SO 0 62.5 562
20:28:49 14 1001 141 0 SO 0 63 565
20:31:47 13 1001 135 0 SO 0 63.5 565
20:34:48 13 1001 123 0 SO 0 63.8 573
20:37:48 13 1001 110 0 SO 0 64.6 577
20:40:51 13 1000 100 0 SO 0 66.7 606
20:43:49 13 1001 89 0 SO 0 67 621
20:46:49 12 1002 77 0 SO 0 67.2 629
20:49:51 12 1001 66 0 SO 0 67.1 639
20:52:48 12 1001 56 0 SO 0 67.4 642
20:55:49 12 1001 46 0 SO 0 68.1 647
20:58:47 12 1002 37 0 SO 0 68.3 645
21:01:51 11 1001 29 0 SO 0 68.6 642
21:04:48 11 1001 22 0 SO 0 69.1 651
21:07:49 11 1001 16 0 SO 0 69.7 656
21:10:47 11 1001 12 0 SO 0 69.9 661
21:13:48 11 1001 9 0 SO 0 70.9 659
21:16:49 11 1001 6 0 SO 0 72 656
21:19:48 11 1002 5 0 SO 0 72.8 659
21:22:47 11 1002 4 0 SO 0 74.6 662
21:25:49 11 1001 3 0 SO 0 75 671
21:28:46 11 1001 3 0 SO 0 74.3 671
21:31:47 10 1002 3 0 SO 0 74.1 676
21:34:47 10 1002 0 0 SO 0 74.5 691
21:37:50 10 1002 0 0 SO 0 75.9 688
21:40:50 10 1002 0 0 SO 0 76.6 686
21:43:48 10 1002 0 1 S 0 79 682
21:46:48 10 1002 0 0 SO 0 78.8 685
21:49:47 10 1002 0 0 SO 0 78 692
21:52:47 10 1002 0 0 SO 0 77.7 694
21:55:47 10 1002 0 0 SO 0 78.2 697
21:58:49 10 1002 0 0 SO 0 78.6 700
22:01:46 10 1001 0 0 SO 0 79 716
22:04:46 10 1002 0 2 W 0 79.4 723
22:07:48 10 1002 0 0 W 0 80.2 729
22:10:49 10 1002 0 0 SO 0 79.5 722
22:13:51 10 1002 0 0 SO 0 78.7 720
22:16:46 10 1002 0 0 SO 0 78.6 714
22:19:48 10 1002 0 0 SO 0 80.1 720
22:22:49 10 1002 0 0 SO 0 81.3 723
22:25:48 10 1002 0 0 NO 0 81.6 723
22:28:48 10 1002 0 0 NO 0 81.7 725
22:31:48 10 1002 0 0 NO 0 81.8 729
22:34:47 10 1002 0 0 NO 0 82 728
22:37:48 9 1002 0 0 NO 0 81.2 732
22:40:48 9 1002 0 0 NO 0 81.3 738
22:43:47 9 1002 0 0 SO 0 81.4 746
22:46:47 9 1002 0 0 SO 0 82.2 742
22:49:45 9 1002 0 0 SO 0 83.4 747
22:52:48 9 1002 0 0 S 0 83.6 744
22:55:46 9 1002 0 0 S 0 84.6 746
22:58:48 9 1002 0 0 S 0 84.8 745
23:01:49 9 1002 0 0 S 0 85 738
23:04:46 9 1002 0 0 S 0 84.8 746
23:07:45 9 1002 0 0 S 0 84.9 752
23:10:48 9 1002 0 0 SW 0 85.1 764
23:13:48 9 1002 0 0 SO 0 85.5 761
23:16:46 9 1002 0 0 SO 0 85.5 764
23:19:48 9 1002 0 0 SO 0 85.5 754
23:22:47 9 1002 0 0 SO 0 85.3 753
23:25:48 9 1002 0 0 SO 0 85.1 737
23:28:48 9 1002 0 0 SO 0 85 691
23:31:48 9 1002 0 0 SO 0 84.9 677
23:34:47 9 1002 0 0 SO 0 84.9 703
23:37:49 9 1002 0 0 SO 0 85 714
23:40:47 9 1002 0 0 SO 0 85 712
23:43:49 9 1002 0 0 SO 0 85.2 714
23:46:46 9 1002 0 0 SO 0 85.5 715
23:49:47 9 1002 0 0 SO 0 85.3 711
23:52:46 9 1002 0 0 SO 0 85.2 717
23:55:49 9 1002 0 0 SO 0 84.9 724
23:58:47 9 1002 0 0 SO 0 84.8 727

Letzte Änderung : 04-Jan-2022
Copyright Jens Köhler, Wolfsburg, Obere Dorfstraße 10d